User: anonymous   Login
Location: Beuerbach
(48.1459°N, 10.9174°E)
Time: 15:43:56
(UTC+00:00)
Language:

ATLAS 2AS CENTAUR R/B - Orbit

View from above orbital plane
View from above orbital plane
View from above satellite
View from above satellite

Ground track
Ground track

The orbit data is extracted from the following two-line orbital elements,

1 28096U 03054B   24206.83614422 -.00000002  00000-0  14901-3 0  9992
2 28096  63.6811 343.0117 0114927 167.0667 193.3351 13.40980289  9578
Epoch (UTC): 24 July 2024 20:04:02
Eccentricity: 0.0114927
inclination: 63.6811°
perigee height: 1019 km
apogee height: 1191 km
right ascension of ascending node: 343.0117°
argument of perigee: 167.0667°
revolutions per day: 13.40980289
mean anomaly at epoch: 193.3351°
orbit number at epoch: 957

The dashed part of the orbit path shows where the satellite is in the earth's shadow,  

DLR